TimeCDT,TemperatureF,Dew PointF,Humidity,Sea Level PressureIn,VisibilityMPH,Wind Direction,Wind SpeedMPH,Gust SpeedMPH,PrecipitationIn,Events,Conditions,WindDirDegrees,DateUTC
12:53 AM,34.0,26.1,73,30.02,10.0,NW,12.7,-,N/A,,Clear,310,2013-04-04 05:53:00
1:53 AM,33.1,26.1,75,30.03,10.0,WNW,15.0,-,N/A,,Clear,300,2013-04-04 06:53:00
2:53 AM,30.9,25.0,79,30.04,10.0,WNW,13.8,-,N/A,,Clear,300,2013-04-04 07:53:00
3:53 AM,30.0,24.1,79,30.06,10.0,NW,15.0,-,N/A,,Clear,320,2013-04-04 08:53:00
4:53 AM,28.9,23.0,78,30.09,10.0,NW,9.2,-,N/A,,Clear,320,2013-04-04 09:53:00
5:53 AM,27.0,21.9,81,30.13,10.0,NNW,10.4,-,N/A,,Scattered Clouds,330,2013-04-04 10:53:00
6:53 AM,27.0,21.0,78,30.16,10.0,NNW,9.2,-,N/A,,Mostly Cloudy,330,2013-04-04 11:53:00
7:53 AM,28.0,21.0,75,30.18,10.0,NNW,10.4,-,N/A,,Mostly Cloudy,340,2013-04-04 12:53:00
8:53 AM,28.9,21.0,72,30.22,10.0,NNW,11.5,-,N/A,,Mostly Cloudy,340,2013-04-04 13:53:00
9:53 AM,28.9,19.9,69,30.23,10.0,North,21.9,31.1,N/A,,Scattered Clouds,350,2013-04-04 14:53:00
10:53 AM,28.9,19.0,67,30.24,10.0,NNW,24.2,31.1,N/A,,Scattered Clouds,340,2013-04-04 15:53:00
11:53 AM,30.0,21.0,69,30.26,10.0,North,21.9,-,N/A,,Scattered Clouds,350,2013-04-04 16:53:00
12:53 PM,28.9,21.0,72,30.27,10.0,North,20.7,-,N/A,,Scattered Clouds,350,2013-04-04 17:53:00
1:53 PM,28.9,21.9,75,30.28,10.0,North,17.3,25.3,N/A,,Scattered Clouds,360,2013-04-04 18:53:00
2:53 PM,28.9,21.0,72,30.28,10.0,North,17.3,-,N/A,,Scattered Clouds,350,2013-04-04 19:53:00
3:53 PM,28.9,19.9,69,30.28,10.0,North,15.0,-,N/A,,Scattered Clouds,360,2013-04-04 20:53:00
4:53 PM,28.9,19.9,69,30.29,10.0,North,17.3,-,N/A,,Partly Cloudy,350,2013-04-04 21:53:00
5:53 PM,28.9,19.0,67,30.29,10.0,North,12.7,-,N/A,,Partly Cloudy,350,2013-04-04 22:53:00
6:53 PM,27.0,19.0,72,30.30,10.0,North,13.8,-,N/A,,Clear,360,2013-04-04 23:53:00
7:53 PM,25.0,17.1,72,30.30,10.0,North,11.5,-,N/A,,Partly Cloudy,360,2013-04-05 00:53:00
8:53 PM,23.0,17.1,78,30.29,10.0,North,8.1,-,N/A,,Partly Cloudy,360,2013-04-05 01:53:00
9:53 PM,21.0,17.1,85,30.30,10.0,North,6.9,-,N/A,,Partly Cloudy,360,2013-04-05 02:53:00
10:53 PM,19.9,16.0,85,30.30,10.0,North,4.6,-,N/A,,Partly Cloudy,360,2013-04-05 03:53:00
11:53 PM,19.0,16.0,88,30.30,10.0,North,5.8,-,N/A,,Clear,360,2013-04-05 04:53:00